Regional Weather Roundup
Issued by NWS Goodland, KS

Home | Current Version | Previous Version | Text Only | Print | Product List | Glossary On
Versions: 1 2 3 4 5 6 7 8 9 10 11 12 13 14 15 16 17 18 19 20 21 22 23 24 25 26 27 28 29 30 31 32 33 34 35 36 37 38 39 40 41 42 43 44 45 46 47 48 49 50
000
ASUS43 KGLD 280408
RWRGLD

GOODLAND FORECAST AREA HOURLY WEATHER ROUNDUP
NATIONAL WEATHER SERVICE GOODLAND KS
1000 PM MDT WED MAY 27 2015

...OFFICIAL OBSERVATIONS...

CITY           SKY/WX    TMP DP  RH WIND       PRES   REMARKS
GOODLAND KS    LGT RAIN  59  56  89 E15       30.09R
HILL CITY KS   CLOUDY    65  62  90 N3        30.09R
IMPERIAL NEB   PTCLDY    57  53  86 SE12      30.06S
MCCOOK NEB     CLOUDY    64  59  83 S10G16    30.04S
AKRON CO       MOCLDY    60  56  86 SE18G28   30.06R
BURLINGTON CO  CLOUDY    60  55  83 SE15      30.09R
LIMON CO       PTCLDY    50  48  93 N7        30.07R
$$

...UNOFFICIAL OBSERVATIONS...

CITY           SKY/WX    TMP DP  RH WIND       PRES   REMARKS
COLBY KS       RAIN      61  61 100 E8G25     30.11F
GOVE KS          N/A     65  32  29 MISG        N/A
NORTON KS      LGT RAIN  63  57  82 CALM      30.04F
SHARON SPRINGS   N/A     57  54  90 MISG        N/A
KIT CARSON CO    N/A     60  54  82 MISG        N/A
$$



USA.gov is the U.S. government's official web portal to all federal, state and local government web resources and services.